Temperature
18 18 18 18 18 18 18 18 18 18 18 18 17 17 17 18 18 18 17 17 18 18 18 18 18 18 18 18 18 18 18 18 18 18 18 18 18 18 18 18 18 18 18
18 18 18 18 18 18 18 18 18 18 17 17 17 17 17 17 17 17 17 17 17 17 17 18 18 18 18 18 18 18 18 18 18 18 18 18 18 18 18 18 18 18 18
18 18 18 18 18 18 18 18 18 18 17 17 17 17 17 17 17 17 17 17 17 17 17 17 17 17 17 17 17 17 18 17 17 17 17 17 17 17 18 18 18 18 18
17 17 18 18 18 18 18 18 18 17 17 17 17 17 17 17 17 17 17 17 17 17 17 17 17 17 17 17 17 17 17 17 17 17 17 17 17 17 17 17 17 17 17
17 17 18 18 18 17 17 17 17 17 17 17 17 17 17 17 17 17 17 17 17 17 17 17 17 17 17 17 17 17 17 17 17 17 17 17 17 17 17 17 17 17 17
17 17 18 18 17 17 17 17 17 17 17 17 17 17 17 17 17 17 17 17 17 17 17 17 17 17 17 17 17 17 17 17 17 17 17 17 17 17 17 17 17 17 17
17 17 17 17 17 17 17 17 17 17 17 17 17 17 17 17 17 17 17 17 17 17 17 17 17 17 17 17 17 17 17 17 17 17 17 17 17 17 17 17 17 17 17
17 17 17 17 17 17 17 17 17 17 17 17 17 17 17 17 17 17 17 17 17 17 17 17 17 17 17 17 17 17 17 16 16 16 16 16 16 17 17 17 17 17 17
17 17 17 17 17 17 17 17 17 17 17 17 17 17 17 16 16 16 16 16 17 17 16 16 16 16 16 16 16 16 16 16 16 16 16 16 16 16 16 16 16 16 16
17 17 17 17 17 17 17 17 17 17 17 17 17 17 16 16 16 16 16 16 16 16 16 16 16 16 16 16 16 16 16 16 16 16 16 16 16 16 16 16 16 16 16
17 17 17 17 17 17 17 17 17 17 17 17 17 16 16 16 16 16 16 16 16 16 16 16 16 16 16 16 16 16 16 16 16 16 16 16 16 16 16 16 16 16 16
18 18 17 17 17 17 17 17 17 17 17 17 17 16 16 16 16 16 16 16 16 16 16 16 16 16 16 16 16 16 16 16 16 16 16 16 16 16 16 16 16 15 15
18 18 18 17 17 17 17 17 17 17 17 17 17 16 16 16 16 16 16 16 16 16 16 16 16 16 16 16 15 15 15 15 15 15 15 15 15 16 15 15 15 15 15
18 18 18 17 17 17 17 17 17 17 17 17 17 16 16 16 16 16 16 16 16 16 15 16 16 16 16 15 15 15 15 15 15 15 15 15 15 15 15 15 15 15 15
18 17 17 17 17 17 17 17 17 17 17 17 17 16 16 16 16 16 16 15 15 15 15 15 15 15 15 15 15 15 15 15 15 15 15 15 15 15 15 15 15 15 15
18 17 17 17 17 17 17 17 17 17 16 16 16 16 16 16 16 16 16 15 15 15 15 15 15 15 15 15 15 15 14 14 15 15 15 15 15 15 15 15 15 14 14
18 18 18 18 17 17 17 17 17 16 16 16 16 16 16 16 16 16 15 15 15 15 15 15 15 15 15 15 15 14 14 14 14 14 14 14 14 15 15 15 14 14 14
18 18 18 17 17 17 17 17 16 16 16 16 16 16 16 16 16 15 15 15 15 15 15 15 15 15 14 14 14 14 14 14 14 14 14 14 14 14 14 14 14 14 14
18 18 18 17 17 17 17 16 16 16 16 16 16 16 16 16 15 15 15 15 15 15 15 15 14 14 14 14 14 14 14 14 14 14 14 14 14 14 14 14 14 14 14
18 18 18 17 17 17 17 16 16 16 16 16 16 16 15 15 15 15 15 15 15 15 14 14 14 14 14 14 14 14 14 14 14 14 13 14 13 13 13 14 14 14 14
18 18 18 17 17 17 16 16 16 16 16 16 15 15 15 15 15 15 15 14 14 14 14 14 14 14 14 14 14 14 14 14 14 13 13 13 13 13 13 13 13 13 13
18 18 17 17 17 17 17 16 16 16 16 15 15 15 15 15 15 15 14 14 14 14 14 14 14 14 14 14 14 14 13 13 13 13 13 13 13 13 13 13 13 13 13
18 18 17 17 17 17 16 16 16 16 16 15 15 15 15 15 15 14 14 14 14 14 14 14 14 14 14 14 14 14 14 13 13 13 13 13 13 12 12 12 13 13 13
18 18 17 17 17 17 16 16 16 16 16 15 15 15 15 15 15 14 14 14 14 14 14 14 14 14 14 14 14 14 14 14 13 13 12 12 12 12 12 12 12 12 12
18 17 17 17 17 17 16 16 16 16 15 15 15 15 15 15 14 14 14 14 14 14 14 14 14 14 14 14 14 14 14 14 14 13 13 12 12 12 12 12 12 12 12
17 17 17 17 17 17 16 16 16 16 15 15 15 15 15 15 15 14 14 14 14 14 14 14 14 14 14 14 14 13 13 13 13 13 13 12 12 12 12 12 12 12 12
Wind_Speed
6 10 11 12 12 12 12 12 12 11 11 11 10 10 10 10 11 11 11 11 11 10 10 11 11 12 12 12 12 11 11 11 10 10 11 12 12 12 12 11 11 10 12
9 11 12 12 12 12 12 12 12 11 11 11 11 10 10 10 11 11 11 11 11 10 10 11 11 11 12 11 11 11 10 10 9 9 10 12 13 13 13 14 13 12 13
9 11 12 11 11 11 11 11 12 12 11 11 11 11 11 10 11 11 11 11 11 11 11 12 12 12 12 11 11 11 10 9 8 8 8 9 12 14 14 15 14 15 14
10 12 11 11 11 11 11 12 12 12 12 12 12 12 12 12 12 11 11 12 13 13 13 14 13 13 12 12 11 11 10 10 10 10 10 11 12 14 15 14 15 15 15
11 12 12 11 12 12 12 13 13 13 13 12 12 12 12 11 11 11 11 12 13 14 14 14 13 13 13 12 12 11 11 11 12 12 12 13 13 14 15 15 15 15 15
11 12 11 11 11 12 12 12 12 12 12 12 12 12 11 11 11 11 11 12 13 13 14 14 14 13 13 13 12 12 12 12 13 12 13 13 12 14 14 14 14 15 15
10 12 11 11 11 11 12 12 12 11 11 11 11 11 11 11 11 11 12 13 13 13 14 14 14 14 13 12 12 12 12 12 12 11 11 12 13 14 14 14 14 14 14
10 11 11 11 11 11 12 12 12 11 11 11 11 11 11 11 11 12 13 13 13 13 14 14 13 13 13 12 12 12 12 12 12 12 12 13 13 14 14 14 14 14 14
8 9 9 10 10 12 11 12 12 11 11 11 10 10 10 11 12 12 13 13 13 13 13 13 12 12 11 11 10 11 11 12 12 10 12 12 13 14 14 14 13 13 13
7 6 6 9 10 10 10 11 11 10 10 10 9 8 9 10 11 12 12 12 12 12 12 11 11 10 9 9 8 9 10 11 12 12 11 12 14 14 14 14 14 13 13
6 5 5 5 7 9 9 9 9 8 8 8 7 6 7 8 9 10 12 11 11 11 10 9 8 7 7 8 8 9 10 10 12 12 12 14 14 14 14 14 14 14 13
5 5 4 5 5 6 7 7 6 6 6 4 5 5 5 8 9 10 11 10 9 9 7 5 4 4 5 6 7 8 9 11 11 11 12 14 14 14 14 14 14 13 13
5 5 5 4 4 5 4 5 3 4 3 3 6 7 7 8 7 8 7 6 5 5 5 4 3 5 7 7 8 9 10 11 11 11 12 14 13 13 13 13 13 12 12
5 4 4 3 4 4 5 4 3 3 3 4 5 7 6 4 4 5 4 4 4 4 4 4 5 7 8 9 10 10 10 9 11 11 12 13 13 13 13 12 12 11 11
5 4 3 3 4 4 4 3 4 4 4 5 5 6 7 4 3 4 4 5 5 5 4 4 5 7 7 8 9 9 8 9 10 11 11 14 13 13 13 13 12 11 11
6 4 3 3 3 5 4 3 4 5 4 5 5 5 7 6 5 4 4 4 5 5 5 5 6 5 5 6 7 8 7 8 9 10 10 12 14 14 14 14 13 12 11
6 4 4 3 4 5 5 3 4 5 5 3 3 5 6 7 7 5 3 3 4 5 6 6 6 5 4 5 5 6 7 7 8 9 10 9 11 13 14 13 13 12 12
5 5 4 3 4 4 4 4 4 5 5 4 5 5 6 7 8 6 3 3 5 6 5 3 3 4 4 4 4 4 5 6 7 8 8 8 9 10 12 13 13 12 12
5 5 5 4 3 4 4 4 4 4 4 4 5 4 5 6 8 6 3 3 6 4 3 3 4 4 4 3 4 4 4 4 5 7 7 8 9 10 10 11 12 12 12
4 5 5 5 4 4 3 3 3 3 2 3 4 4 5 6 7 6 3 4 5 3 4 4 4 3 2 2 4 5 3 3 4 5 5 7 8 9 9 9 9 10 11
4 5 5 5 4 4 3 3 2 2 2 2 2 3 4 5 6 5 3 3 4 3 3 3 3 3 2 2 3 3 2 3 4 3 4 4 6 7 8 9 8 8 8
5 4 5 5 4 4 3 3 2 2 2 2 2 3 4 4 4 4 3 2 3 3 3 3 2 2 1 1 1 1 1 2 3 3 3 3 4 6 6 8 8 8 8
5 5 4 4 5 5 4 3 3 2 1 2 2 1 2 3 3 3 3 3 3 2 2 1 1 2 0 1 1 1 1 1 0 2 3 3 4 4 4 6 8 8 8
5 5 4 4 5 5 5 4 4 3 2 2 2 2 1 2 2 2 3 2 3 2 2 1 1 1 1 1 1 1 1 2 2 1 1 2 3 3 3 4 6 7 8
5 4 4 4 4 5 5 4 3 2 2 2 2 3 2 2 2 2 3 2 2 2 2 1 1 1 0 0 0 1 2 2 1 2 1 1 2 2 2 3 4 6 7
5 4 3 3 4 4 4 5 5 4 3 2 2 3 2 2 2 2 3 2 2 2 2 2 1 1 0 0 0 1 1 1 1 1 1 1 1 1 1 2 3 4 6
Wind_Direction
79 78 67 67 66 68 68 67 68 70 70 70 72 73 71 70 71 68 65 64 63 64 64 65 66 67 66 64 63 61 62 63 65 68 70 68 64 61 57 56 60 64 66
91 84 75 71 69 69 70 70 70 72 70 70 72 73 72 72 70 67 66 66 65 64 70 72 70 71 68 64 64 62 60 59 61 65 71 71 67 64 63 62 64 68 68
94 90 79 73 72 73 74 74 75 75 75 73 74 74 73 73 74 69 67 67 65 63 75 80 76 72 69 65 62 60 55 50 48 54 67 79 73 66 65 65 67 69 71
92 89 83 77 76 78 78 76 76 77 76 76 77 76 74 75 74 72 70 69 68 68 79 83 77 73 70 67 62 57 50 42 41 50 59 68 70 68 67 68 68 70 70
91 88 86 79 80 83 82 80 78 79 77 76 77 77 75 73 75 75 74 73 71 71 76 78 77 74 71 67 62 56 49 45 48 55 66 69 69 73 71 71 71 70 71
95 92 90 85 86 85 83 83 81 80 79 78 77 77 77 77 78 78 77 74 73 73 76 78 76 75 72 67 62 55 49 46 54 59 64 69 72 75 75 74 74 73 73
101 99 94 90 88 88 86 85 83 81 81 80 80 80 78 80 81 81 81 79 77 76 77 78 77 74 71 67 62 55 50 49 65 65 69 74 77 78 77 77 77 77 77
104 104 101 94 90 90 87 87 86 83 82 83 83 84 85 85 86 86 85 84 80 79 78 78 78 74 70 66 61 55 47 43 64 65 72 76 78 79 80 79 78 79 78
101 110 116 111 101 96 92 89 88 86 85 86 89 91 93 93 90 88 87 86 83 82 81 80 79 76 70 66 61 56 49 45 58 60 69 73 77 79 79 78 79 80 79
108 112 121 126 124 111 101 97 96 94 95 99 97 97 102 100 97 95 88 87 86 85 84 84 82 78 72 64 58 54 50 50 60 58 65 74 78 80 78 78 79 82 83
103 106 106 110 113 117 116 112 114 111 111 116 118 113 117 113 103 97 94 94 94 92 90 90 90 89 77 68 59 54 55 63 64 61 63 73 78 80 78 77 79 81 82
118 118 110 108 106 108 112 128 139 129 144 156 129 126 112 95 96 98 107 107 107 104 99 99 102 81 62 63 62 61 66 66 65 66 64 71 75 78 78 77 78 80 81
119 109 102 105 99 101 99 105 101 104 119 105 102 104 99 101 114 116 121 123 124 114 97 88 81 74 71 67 69 68 66 66 67 63 64 68 72 76 78 77 76 77 78
105 106 112 119 104 97 98 93 92 83 75 63 71 89 88 83 88 100 103 109 109 83 77 76 69 65 65 67 69 71 70 69 73 70 65 67 68 71 77 77 74 74 75
122 121 114 101 105 98 88 84 80 65 57 58 52 77 86 77 71 81 77 71 75 74 66 63 67 63 54 57 64 69 73 74 76 78 71 67 66 69 73 74 73 73 75
127 129 121 120 108 101 100 93 82 79 67 58 59 65 86 86 82 74 70 61 62 67 71 69 68 67 61 61 57 58 63 71 77 83 81 73 67 67 68 68 69 70 76
137 133 130 125 108 101 94 74 72 75 76 59 64 64 86 92 88 82 77 70 68 66 71 70 68 72 74 69 60 56 53 58 69 73 74 77 77 70 70 67 65 66 70
132 129 129 126 110 103 105 86 65 67 63 54 50 42 66 83 86 79 68 69 73 69 70 69 69 65 64 65 58 52 50 45 53 70 72 73 77 77 73 69 65 64 66
140 139 139 126 112 107 103 99 78 68 61 57 57 43 51 78 86 83 63 74 81 74 64 67 64 75 73 75 79 66 53 38 36 54 62 66 75 86 84 76 67 62 62
146 140 137 128 125 115 109 98 84 69 65 64 65 52 48 69 83 85 69 67 76 63 58 65 66 67 80 81 84 81 77 68 51 42 49 61 64 73 79 83 76 68 62
153 145 135 142 142 128 124 110 110 100 81 79 79 83 69 71 81 84 68 57 67 68 71 76 76 72 73 92 88 76 55 71 83 54 44 51 61 68 76 82 78 73 69
159 150 145 145 144 132 123 124 132 119 107 101 65 67 78 81 81 95 94 93 82 75 70 74 81 77 68 101 123 118 104 31 37 68 63 46 46 50 59 71 76 73 71
159 151 151 158 149 138 136 121 112 104 99 120 124 93 64 92 95 90 101 102 107 103 92 84 93 81 23 338 41 78 117 134 100 44 72 69 54 40 45 62 68 67 70
163 152 164 165 153 146 144 150 159 159 159 160 142 137 151 129 115 110 111 115 115 114 120 153 110 99 72 334 358 15 53 109 132 119 30 71 76 64 47 51 63 64 74
154 152 170 158 152 151 157 147 154 147 159 153 132 147 162 150 144 145 139 130 122 133 151 136 101 86 119 226 49 25 18 13 24 116 130 91 51 51 55 61 72 75 83
147 144 144 144 142 148 158 156 165 159 165 161 160 168 165 157 165 173 163 155 145 154 163 155 150 156 260 10 92 98 105 64 345 84 111 123 111 66 55 63 75 83 91
Height
1522 1521 1520 1519 1518 1518 1518 1517 1517 1518 1518 1518 1519 1519 1519 1520 1520 1521 1521 1521 1521 1520 1520 1521 1521 1522 1523 1523 1523 1523 1524 1524 1524 1524 1524 1525 1525 1524 1524 1524 1524 1523 1522
1523 1522 1521 1521 1520 1520 1520 1519 1520 1520 1520 1520 1520 1521 1521 1521 1521 1522 1522 1522 1521 1520 1520 1521 1522 1523 1524 1524 1524 1525 1525 1525 1526 1526 1526 1526 1526 1526 1526 1526 1525 1525 1524
1524 1524 1523 1522 1522 1522 1521 1521 1521 1521 1521 1521 1522 1522 1522 1522 1523 1523 1523 1523 1521 1518 1516 1519 1523 1524 1525 1526 1526 1526 1527 1527 1527 1527 1527 1527 1527 1527 1527 1527 1526 1526 1526
1525 1525 1524 1524 1523 1523 1523 1523 1523 1523 1523 1523 1523 1524 1524 1524 1524 1525 1525 1524 1523 1519 1517 1521 1524 1526 1527 1527 1528 1528 1529 1529 1529 1529 1529 1529 1529 1529 1529 1528 1528 1528 1527
1527 1526 1526 1525 1525 1525 1525 1525 1525 1525 1525 1525 1525 1526 1526 1526 1526 1527 1527 1526 1526 1524 1524 1525 1526 1527 1528 1529 1529 1530 1530 1530 1530 1530 1530 1530 1530 1530 1530 1530 1529 1529 1529
1528 1527 1527 1527 1527 1527 1527 1527 1527 1527 1527 1527 1527 1528 1528 1528 1528 1528 1529 1528 1528 1528 1528 1528 1529 1529 1530 1531 1531 1531 1531 1531 1532 1532 1532 1532 1532 1532 1532 1532 1531 1531 1531
1529 1529 1529 1528 1528 1528 1528 1529 1529 1529 1529 1529 1530 1530 1530 1530 1530 1530 1531 1530 1531 1531 1530 1531 1531 1532 1532 1532 1533 1533 1533 1533 1533 1533 1533 1533 1533 1533 1533 1533 1533 1533 1533
1530 1530 1530 1530 1530 1530 1530 1531 1531 1531 1531 1531 1531 1532 1532 1532 1532 1532 1532 1532 1533 1533 1533 1533 1533 1534 1534 1534 1535 1535 1535 1535 1535 1535 1535 1535 1535 1534 1534 1534 1535 1534 1534
1532 1532 1532 1532 1532 1532 1532 1533 1533 1533 1533 1533 1534 1534 1534 1534 1534 1534 1534 1534 1535 1535 1535 1536 1536 1536 1536 1537 1537 1537 1537 1537 1537 1537 1537 1536 1536 1536 1536 1536 1535 1536 1536
1533 1534 1534 1534 1534 1534 1534 1535 1535 1535 1535 1536 1536 1536 1536 1536 1536 1536 1536 1536 1537 1537 1537 1538 1538 1539 1539 1539 1539 1539 1539 1539 1539 1539 1538 1538 1538 1538 1538 1537 1537 1537 1537
1535 1536 1536 1537 1537 1537 1536 1537 1537 1537 1537 1537 1538 1538 1538 1538 1538 1539 1539 1539 1539 1539 1540 1540 1541 1541 1541 1541 1541 1541 1540 1540 1540 1540 1540 1540 1540 1540 1539 1539 1539 1539 1539
1536 1537 1537 1538 1538 1539 1539 1538 1538 1539 1539 1539 1540 1540 1540 1541 1541 1541 1541 1541 1541 1542 1542 1542 1543 1543 1543 1543 1543 1542 1542 1542 1542 1542 1542 1542 1541 1541 1541 1541 1540 1540 1541
1537 1538 1539 1539 1540 1540 1540 1541 1541 1541 1541 1542 1542 1542 1542 1542 1542 1543 1543 1543 1543 1543 1544 1544 1544 1545 1545 1545 1545 1544 1544 1544 1544 1544 1544 1543 1543 1543 1543 1543 1542 1542 1542
1538 1539 1540 1540 1541 1541 1542 1542 1542 1542 1543 1543 1543 1544 1544 1544 1544 1544 1544 1545 1545 1545 1546 1546 1546 1547 1547 1547 1546 1546 1546 1546 1546 1545 1545 1545 1545 1544 1544 1544 1544 1544 1544
1538 1539 1540 1541 1542 1542 1542 1543 1543 1544 1544 1544 1545 1545 1545 1545 1546 1546 1546 1546 1547 1547 1547 1547 1548 1548 1548 1548 1548 1548 1548 1547 1547 1547 1547 1547 1546 1546 1546 1546 1545 1546 1546
1538 1539 1540 1541 1542 1543 1543 1544 1544 1545 1545 1545 1546 1546 1546 1547 1547 1547 1547 1547 1548 1548 1548 1548 1549 1549 1549 1549 1549 1549 1549 1549 1549 1548 1548 1548 1548 1547 1547 1547 1547 1547 1547
1538 1539 1540 1541 1542 1543 1544 1545 1546 1546 1546 1547 1547 1547 1548 1548 1548 1548 1548 1548 1549 1549 1549 1549 1549 1550 1550 1550 1550 1550 1550 1550 1550 1550 1550 1549 1549 1549 1549 1548 1548 1548 1548
1538 1539 1541 1542 1543 1543 1544 1545 1546 1547 1547 1547 1548 1548 1549 1549 1549 1549 1549 1549 1549 1549 1550 1550 1551 1551 1551 1551 1551 1551 1551 1551 1551 1551 1551 1551 1551 1550 1550 1550 1549 1549 1549
1538 1539 1540 1542 1543 1543 1544 1545 1546 1547 1547 1548 1548 1549 1549 1549 1549 1549 1550 1550 1550 1550 1551 1551 1551 1551 1551 1552 1552 1552 1552 1552 1552 1553 1553 1553 1552 1552 1551 1551 1551 1550 1550
1537 1539 1540 1541 1542 1543 1544 1545 1546 1547 1548 1548 1549 1549 1550 1550 1550 1550 1551 1551 1551 1551 1551 1552 1552 1552 1552 1553 1553 1553 1553 1553 1553 1553 1554 1554 1553 1553 1553 1552 1552 1551 1551
1537 1538 1539 1541 1542 1543 1544 1545 1546 1547 1548 1548 1549 1549 1550 1550 1551 1551 1551 1551 1551 1551 1552 1552 1552 1553 1553 1553 1554 1554 1555 1555 1555 1554 1555 1555 1554 1554 1554 1553 1552 1552 1552
1536 1537 1539 1540 1541 1542 1543 1544 1545 1547 1547 1548 1549 1549 1550 1550 1551 1551 1551 1552 1552 1552 1552 1553 1553 1553 1554 1554 1555 1555 1555 1557 1556 1556 1555 1555 1555 1555 1554 1554 1553 1552 1552
1535 1536 1538 1539 1540 1541 1542 1544 1545 1546 1547 1547 1548 1549 1550 1550 1551 1551 1551 1552 1552 1552 1552 1553 1554 1554 1554 1555 1555 1556 1556 1556 1556 1557 1556 1556 1556 1555 1555 1555 1554 1553 1552
1533 1534 1536 1538 1539 1540 1541 1543 1544 1545 1546 1547 1547 1548 1549 1550 1550 1551 1551 1552 1552 1552 1552 1553 1554 1554 1554 1554 1555 1555 1556 1556 1556 1557 1558 1557 1556 1556 1555 1555 1554 1553 1553
1531 1533 1535 1536 1538 1539 1540 1542 1543 1544 1545 1546 1547 1547 1548 1549 1549 1550 1551 1551 1552 1552 1552 1553 1553 1554 1554 1554 1555 1555 1555 1556 1556 1556 1557 1557 1557 1556 1556 1555 1554 1554 1553
1529 1531 1533 1535 1536 1537 1539 1540 1541 1543 1544 1545 1546 1546 1547 1548 1548 1549 1550 1551 1551 1552 1552 1552 1553 1553 1554 1554 1554 1554 1555 1555 1555 1556 1556 1556 1556 1556 1556 1555 1554 1554 1553